GFSCGP_850_rhum_162.txt.gz
RH
23 27 30 26 23 21 20 20 20 16 14 14 13 12 10 9 9 9 9 11 12 12 15 27 43 47 49 55 70 75 80 78 60 50 44 40 36 38 33 21 17 18 20 23
26 30 21 19 19 19 20 22 23 18 15 16 16 16 13 11 11 10 10 10 11 11 14 30 44 48 49 56 72 78 82 74 64 55 51 48 48 46 33 20 19 21 23 26
30 25 20 21 22 23 23 26 26 24 19 18 20 21 17 13 12 11 11 10 11 12 13 40 47 51 52 56 72 80 83 72 66 64 61 59 55 52 38 26 23 24 26 28
28 22 24 25 26 26 32 22 23 23 25 31 19 28 19 15 14 12 12 12 11 12 13 42 52 54 55 58 72 79 83 78 69 64 63 58 48 41 36 39 27 26 28 31
36 31 30 33 30 26 30 24 26 27 31 33 29 29 23 16 16 14 12 12 12 12 12 40 53 55 59 62 68 76 78 79 72 68 65 58 47 49 54 44 37 32 32 34
34 26 27 27 25 24 23 28 29 30 34 46 32 29 26 20 17 15 12 12 12 14 14 36 49 54 59 62 67 74 73 74 73 72 68 58 52 48 51 44 40 41 36 37
39 36 28 25 30 25 26 32 46 48 51 52 26 27 25 20 18 18 18 17 20 21 23 40 50 53 57 60 65 73 72 71 74 76 73 64 56 56 53 50 70 56 44 39
35 38 30 25 30 31 29 32 47 60 53 38 28 35 31 31 28 31 30 27 31 34 33 44 49 52 55 59 66 73 74 73 74 79 79 71 65 64 68 74 70 54 43 40
32 27 19 20 21 24 32 36 27 42 40 54 39 29 38 34 34 36 36 38 41 40 43 40 47 51 54 60 68 75 76 76 74 80 75 74 73 71 70 61 51 42 42 36
26 38 22 18 18 20 27 24 41 62 90 59 38 31 47 38 37 37 38 42 46 48 49 49 48 52 56 62 70 76 74 70 74 77 78 76 71 64 51 45 43 42 40 38
26 32 30 22 22 23 20 30 32 33 70 77 62 43 43 45 43 40 36 35 36 42 50 54 54 53 60 62 68 76 70 68 74 82 83 82 78 59 47 45 61 43 40 39
40 40 44 32 23 25 27 28 26 48 53 46 70 66 37 36 36 41 43 40 37 34 40 49 55 55 60 65 70 77 73 74 80 83 90 73 56 53 52 66 49 52 48 40
40 57 52 39 30 29 50 53 50 54 46 53 62 51 37 39 44 37 39 38 40 37 36 45 50 57 60 68 72 78 80 77 77 72 55 53 63 85 68 71 66 83 49 40
43 52 60 55 79 85 97 78 62 75 88 80 68 54 52 55 56 45 44 41 36 39 37 38 49 56 62 67 72 76 81 80 76 73 92 93 89 78 83 98 96 65 56 44
43 50 43 41 39 70 71 75 73 77 74 92 61 56 48 41 37 38 38 31 32 32 38 40 45 59 66 72 76 78 80 81 89 93 87 94 91 87 100 99 89 75 89 68
42 59 45 47 36 44 70 52 44 46 49 55 52 53 37 30 28 27 27 26 25 28 30 34 35 38 60 68 79 82 72 70 78 89 98 96 85 100 100 98 94 97 74 74
63 61 56 66 40 38 57 50 38 32 32 35 47 37 30 27 24 23 25 25 25 26 30 32 39 40 48 64 69 74 81 85 94 100 100 97 96 100 100 100 98 96 88 81
60 68 68 72 53 84 45 27 34 35 24 21 22 19 20 19 18 18 19 25 36 46 48 55 51 60 74 72 75 76 85 94 98 98 100 98 99 99 99 98 98 96 93 66
46 57 68 78 71 48 34 28 29 29 29 20 19 19 16 16 16 19 34 48 52 39 41 43 44 46 52 60 79 84 88 91 98 100 99 100 99 100 100 98 98 98 79 48
40 49 64 87 80 78 51 28 21 21 67 37 26 25 21 18 40 64 55 55 41 40 37 33 35 41 52 71 72 80 84 91 95 98 100 100 100 100 99 98 97 96 73 29
59 61 74 78 73 52 28 20 19 42 39 18 18 18 17 26 51 62 59 46 34 31 28 32 32 42 53 79 78 82 93 99 99 100 100 100 100 100 99 98 97 94 44 36
52 78 74 69 82 80 26 24 52 47 29 24 21 20 18 44 51 43 32 29 26 24 41 56 66 45 54 78 99 96 100 100 100 100 100 99 100 100 98 98 96 95 86 72
68 57 78 58 58 38 28 30 25 28 26 23 24 19 20 38 42 40 36 21 12 39 73 74 76 85 74 80 97 98 100 100 100 100 100 100 100 98 97 96 96 96 83 78
50 39 57 70 65 67 54 41 28 24 24 24 24 22 25 32 39 36 32 15 17 38 57 73 80 85 78 88 100 100 99 99 100 100 100 100 98 96 96 96 96 95 82 98
91 99 100 83 62 74 61 55 54 24 24 23 23 22 25 31 37 36 35 24 34 59 72 76 80 87 88 78 91 94 99 100 100 100 99 99 97 96 96 96 95 95 93 91
50 67 91 88 64 88 53 31 28 28 27 26 26 26 28 34 42 44 56 62 74 76 73 78 80 86 97 94 87 100 98 100 100 99 98 97 96 96 95 95 95 97 95 94

GFSCGP_850_rhum_165.txt.gz
RH
27 41 44 34 32 32 32 32 32 25 20 20 21 19 16 12 11 12 11 10 13 17 33 38 47 55 59 61 62 66 64 70 71 72 66 58 46 38 31 30 22 17 17 17
35 41 32 27 27 29 31 33 32 26 22 23 26 26 21 18 13 11 11 10 10 14 17 40 50 54 56 62 63 65 65 66 68 70 64 51 47 43 38 28 19 19 20 20
45 33 26 26 27 28 28 31 32 32 26 25 27 27 25 20 17 12 11 11 9 10 12 37 50 52 55 62 64 64 68 69 68 68 61 60 57 50 41 24 20 21 23 25
36 28 29 29 31 27 34 26 30 32 37 45 30 49 28 23 21 18 15 13 12 9 10 31 49 51 52 60 64 66 68 69 68 64 66 64 54 48 43 27 27 26 28 29
38 36 38 39 35 31 38 30 33 35 42 47 37 45 34 24 24 20 24 17 14 11 12 37 48 50 52 56 62 66 68 71 68 71 71 65 60 54 43 35 37 33 32 33
47 36 34 34 30 29 28 30 34 38 42 58 42 41 39 32 33 37 33 37 35 16 30 54 54 52 57 63 63 68 74 75 68 77 68 65 61 50 53 56 49 37 36 34
50 46 37 34 42 34 31 40 62 65 62 68 36 41 37 44 44 41 42 44 50 46 60 61 57 56 58 61 66 71 75 76 74 75 70 66 57 58 55 54 50 40 36 36
64 62 42 34 41 44 40 38 70 84 75 56 41 51 45 44 42 42 46 48 46 54 59 60 58 57 58 61 64 70 74 76 76 74 71 71 67 62 58 56 50 40 41 38
46 40 25 23 24 29 42 47 36 48 50 61 56 46 43 44 45 48 50 49 49 50 54 56 55 56 59 62 67 70 73 74 74 75 73 75 68 64 62 60 55 50 45 42
34 45 29 21 19 21 31 28 72 81 99 95 61 50 68 53 51 50 50 49 49 50 60 58 56 57 59 63 67 71 72 73 75 77 79 78 71 69 70 67 63 61 51 41
30 39 39 30 26 26 27 35 41 66 89 99 96 75 49 56 55 51 45 39 38 47 53 53 58 61 58 60 64 68 71 74 76 77 78 78 75 74 73 71 66 56 44 45
41 48 57 42 31 27 33 47 52 75 71 73 76 77 43 46 44 45 44 42 40 38 37 53 54 56 58 60 66 69 72 71 70 71 73 76 77 75 71 59 53 63 76 59
50 65 67 50 35 50 67 60 55 61 65 72 81 80 48 49 52 46 43 39 36 38 39 38 52 57 60 63 66 70 73 70 68 68 70 72 72 64 56 53 79 94 92 98
41 57 65 66 67 82 92 78 66 77 95 97 83 70 67 59 56 52 45 38 32 36 37 40 41 55 59 62 67 70 72 73 73 75 75 70 58 55 70 97 99 100 100 99
57 71 56 55 52 74 79 78 79 85 71 86 64 66 50 46 57 54 44 36 37 36 33 37 43 49 62 63 68 69 70 72 74 77 74 68 92 97 99 100 100 100 99 96
56 73 57 59 46 44 74 68 66 72 73 73 66 64 45 41 37 35 32 30 32 31 29 31 36 43 56 61 68 67 66 70 75 78 80 88 94 98 100 99 100 99 98 98
81 75 74 74 55 55 66 62 62 61 53 57 76 57 44 42 40 37 33 29 25 36 32 38 40 46 56 58 62 64 67 71 78 81 88 96 96 99 100 100 99 98 98 96
94 91 92 85 73 93 54 38 35 48 45 39 37 35 32 30 27 29 26 31 40 36 35 35 35 44 52 69 79 77 76 81 83 82 90 95 94 99 99 100 99 96 96 96
69 86 99 97 94 65 53 42 46 51 53 40 40 30 22 19 21 46 38 30 32 35 32 29 30 36 41 39 39 72 83 86 88 88 88 94 96 99 99 99 98 98 97 97
64 64 86 98 93 87 57 38 30 43 65 33 35 37 40 25 45 81 48 36 34 32 33 36 37 32 29 32 41 76 88 86 88 92 90 94 100 100 100 99 98 97 97 97
84 75 84 92 91 78 45 33 28 67 48 30 30 33 39 41 44 42 48 39 37 36 35 32 30 29 34 46 61 80 98 96 94 93 94 96 100 100 100 100 98 97 97 96
58 86 96 76 82 83 38 34 48 41 26 26 24 19 31 43 52 56 52 42 34 31 26 17 17 24 35 43 73 93 100 100 99 98 99 100 100 100 100 100 99 97 97 96
77 66 70 75 92 58 45 57 44 36 29 24 27 21 20 50 56 51 35 31 28 22 22 26 48 51 55 65 72 99 99 99 100 99 100 100 100 100 98 97 97 96 96 95
71 76 93 92 62 53 48 46 49 52 43 42 34 24 20 30 39 39 37 32 22 13 27 57 72 73 66 65 72 86 99 99 97 100 100 100 99 99 97 96 96 96 95 95
81 72 83 83 74 84 69 78 78 75 46 41 42 27 22 25 33 34 35 34 26 15 34 67 68 70 71 66 64 75 100 99 100 99 100 100 99 97 97 96 95 96 96 95
58 66 84 73 56 78 70 55 84 82 80 51 56 26 25 26 27 33 33 35 36 27 41 73 74 75 77 72 73 77 94 100 100 100 100 100 98 97 96 96 96 96 97 95

GFSCGP_850_rhum_168.txt.gz
RH
30 46 51 42 35 35 36 38 40 33 27 29 27 28 25 20 13 13 12 12 24 43 35 60 66 65 69 79 79 78 81 90 96 99 94 82 59 48 45 41 36 30 23 19
37 44 37 32 33 36 37 41 42 34 28 28 31 33 28 24 19 15 12 10 11 15 47 61 71 69 69 76 84 87 88 88 96 89 76 59 46 45 44 40 30 23 22 24
45 38 30 34 37 38 37 40 39 37 31 31 33 33 30 24 21 18 16 15 11 11 21 56 71 75 77 81 88 87 84 75 74 72 61 56 53 50 48 44 33 30 28 29
43 34 38 41 38 34 41 30 32 34 42 50 34 55 38 31 29 26 37 37 27 14 13 38 63 70 75 80 84 83 76 73 74 68 60 52 46 47 43 39 33 32 32 32
46 36 42 46 41 34 40 37 38 41 46 48 43 53 41 29 31 45 47 54 48 24 15 34 51 59 76 82 82 77 76 77 75 69 62 54 51 49 46 42 34 29 28 31
53 37 46 43 40 37 37 36 37 40 49 62 50 50 52 54 51 51 53 63 71 34 37 57 80 84 84 82 79 78 79 77 76 70 61 55 57 58 56 50 40 30 29 32
54 53 45 42 52 43 45 42 92 71 75 70 44 49 46 49 55 55 57 63 70 72 78 90 95 90 86 84 82 80 80 78 77 69 69 71 67 62 62 55 42 35 33 32
70 80 52 42 48 52 50 48 87 82 80 65 43 57 50 49 53 53 55 62 66 67 71 84 90 87 83 80 77 78 82 80 79 72 71 67 66 66 55 48 49 49 41 39
69 67 31 31 37 43 52 55 51 66 71 81 61 52 52 58 59 57 55 62 65 61 60 61 64 68 74 78 77 79 80 80 79 74 72 71 70 66 61 62 59 56 50 48
46 51 31 23 22 24 37 41 69 97 98 97 73 56 68 62 61 53 61 69 61 56 59 58 62 68 69 74 76 75 77 79 82 79 76 74 72 71 67 62 62 60 59 55
38 43 42 31 29 30 35 60 79 88 98 98 96 86 53 66 58 54 48 63 50 47 47 52 52 58 57 64 68 73 79 79 78 77 77 76 75 71 66 66 69 69 67 59
42 54 58 42 34 29 41 55 77 98 99 96 89 85 50 57 56 52 46 45 54 52 47 43 45 52 60 67 72 74 75 73 74 72 77 80 78 75 75 75 75 74 71 55
44 64 68 54 40 50 60 59 60 67 74 77 88 83 54 51 51 45 42 39 38 34 39 46 51 52 57 62 65 66 65 65 66 68 74 76 77 78 79 80 79 72 57 52
40 59 64 65 63 71 79 72 64 71 95 96 91 74 62 61 59 55 52 46 39 36 34 38 46 57 57 60 63 65 67 69 70 70 69 70 73 71 74 77 69 59 78 96
48 63 66 61 53 66 68 71 75 75 60 80 53 71 54 59 63 60 53 42 44 39 34 35 43 50 58 60 62 65 68 69 71 71 72 78 79 67 62 55 63 97 100 100
61 70 64 59 52 67 75 66 58 66 64 69 61 66 48 44 44 53 47 49 48 36 30 31 36 44 49 56 62 53 62 67 70 74 75 78 81 80 91 95 100 100 100 99
84 73 75 67 53 59 81 64 64 60 66 66 84 58 44 54 52 46 42 40 38 34 32 32 35 46 47 51 54 52 57 65 71 76 78 79 80 80 98 100 100 100 100 99
96 93 85 79 72 93 50 33 38 54 51 57 56 53 49 46 43 37 33 35 36 34 34 36 36 38 45 52 56 64 68 72 75 78 81 82 84 88 100 99 99 98 99 99
75 98 99 95 79 57 61 46 52 53 49 49 54 48 42 35 34 40 34 31 33 30 35 35 35 36 40 42 53 65 68 69 81 84 85 84 83 90 96 100 100 100 99 97
64 92 99 99 97 87 60 45 38 45 73 44 46 46 45 34 49 66 36 35 34 35 36 32 30 30 31 34 36 37 42 58 75 82 89 87 87 87 88 100 100 100 100 98
92 92 97 96 94 94 66 36 38 66 59 30 32 33 37 50 38 26 37 38 36 35 33 34 35 34 34 33 32 33 43 68 85 92 86 87 90 89 99 100 100 100 99 98
61 90 96 97 96 91 65 44 54 53 35 28 26 25 35 33 32 34 40 40 36 36 36 34 33 33 32 33 29 29 41 65 95 90 90 89 89 98 99 100 100 100 99 98
69 64 84 77 92 68 68 80 71 80 70 60 48 31 20 29 42 46 44 39 38 35 31 23 16 16 29 39 42 46 52 62 96 98 95 93 96 100 100 100 99 98 97 96
70 71 84 86 69 66 50 61 65 56 71 74 72 43 36 26 35 49 46 40 34 31 18 15 28 29 38 48 53 62 84 100 99 99 98 100 100 100 99 99 97 97 96 96
72 76 83 82 64 56 45 40 37 42 54 74 78 57 41 37 43 48 41 36 31 21 13 24 33 42 59 64 59 62 78 99 99 99 97 100 100 100 100 98 97 96 97 97
62 63 82 79 53 63 56 41 42 51 63 70 88 81 64 46 43 36 36 32 31 25 19 23 32 62 72 69 66 66 73 100 99 99 98 99 100 99 99 97 96 98 98 97

GFSCGP_850_rhum_174.txt.gz
RH
56 59 62 45 38 30 45 47 48 42 36 39 42 40 37 30 30 30 26 22 19 30 44 57 69 75 70 70 82 87 73 70 76 80 85 96 100 100 97 86 72 59 65 74
46 71 46 37 35 44 50 56 56 44 37 40 46 43 34 31 30 28 28 35 34 29 31 34 56 69 63 74 95 98 80 73 79 88 84 78 96 100 100 92 75 65 65 70
54 46 43 50 52 57 56 57 53 49 41 40 44 49 43 34 31 32 40 47 47 39 37 31 30 38 57 71 81 96 78 62 64 81 94 97 96 100 100 93 80 64 60 60
58 44 42 51 50 49 57 43 42 46 49 60 39 66 42 34 35 41 58 56 53 50 40 35 30 36 55 79 100 99 76 63 78 74 88 94 77 82 82 93 90 58 53 50
52 49 53 48 43 40 45 40 45 45 51 58 57 68 53 41 44 44 67 70 67 69 59 38 33 55 96 100 100 100 100 99 95 100 96 92 86 97 99 97 66 51 44 41
62 40 43 45 41 40 43 50 53 53 58 83 63 63 46 47 44 61 69 77 89 89 81 77 93 98 99 100 100 100 100 100 100 100 100 100 100 100 95 80 61 54 48 42
62 60 57 46 56 53 54 67 85 86 83 81 54 63 46 54 59 62 74 81 96 91 88 96 98 94 99 98 98 99 100 100 100 100 100 100 100 99 89 76 66 54 50 43
90 83 58 58 54 57 70 69 87 86 89 80 58 72 56 64 64 68 74 84 96 90 83 86 87 93 99 99 100 100 100 95 92 93 86 95 88 94 85 71 66 74 76 64
89 86 50 51 47 50 56 66 55 75 75 92 77 64 61 66 69 73 79 88 100 100 98 84 81 83 97 76 64 61 64 60 64 68 73 79 86 91 85 82 82 77 71 63
56 74 53 40 46 50 54 49 74 82 98 95 82 79 73 84 80 76 82 85 92 96 94 92 89 86 71 57 54 55 50 50 63 72 78 90 90 94 88 94 89 85 76 71
56 60 57 34 49 68 67 66 78 78 91 87 84 82 61 73 76 82 84 76 80 84 77 71 70 73 69 65 63 64 65 68 68 73 82 85 85 88 96 98 94 91 83 80
59 67 72 58 37 40 49 64 67 91 92 98 90 85 65 72 72 72 67 56 49 55 70 68 68 71 72 70 67 68 74 74 80 82 75 78 90 94 92 94 90 84 82 80
67 77 97 81 46 47 50 68 69 72 87 98 96 89 61 61 62 56 53 47 40 43 46 46 52 57 60 68 74 74 76 80 86 82 79 88 89 85 80 79 76 74 76 77
68 79 77 76 69 67 74 67 70 69 94 96 90 79 73 68 62 61 61 58 48 44 44 46 43 42 42 53 66 77 80 82 85 85 86 86 80 78 78 76 75 75 77 78
90 100 90 86 76 74 91 74 74 77 70 78 82 79 74 71 66 59 48 50 46 43 43 42 46 40 37 48 57 68 75 77 80 82 79 74 76 77 77 78 79 80 80 84
96 99 100 97 84 100 100 98 94 96 78 68 75 67 48 46 52 55 47 50 52 47 43 47 46 44 39 37 51 59 67 70 72 71 70 72 74 76 78 78 78 76 74 77
99 98 98 96 88 94 98 92 87 72 66 61 83 64 44 55 56 55 54 56 54 50 48 48 46 38 36 35 38 51 56 63 66 68 72 74 75 76 78 80 78 82 81 77
100 98 91 94 84 96 64 66 64 71 64 54 51 43 39 40 44 35 32 37 37 36 37 34 30 30 33 33 36 47 55 61 61 63 69 74 74 77 78 82 83 81 81 88
94 96 99 96 84 56 57 55 57 72 68 68 57 52 47 49 44 45 43 38 35 35 34 30 29 30 30 32 33 41 53 61 63 61 66 73 76 78 82 86 76 76 86 99
71 88 98 97 97 93 65 67 62 44 70 85 79 82 80 58 80 63 50 41 32 30 30 28 29 29 28 28 35 43 52 59 64 64 66 72 77 77 78 78 78 78 81 100
93 97 94 90 95 97 86 68 67 76 94 76 79 78 81 88 74 70 63 46 40 29 28 24 25 29 28 28 37 52 54 54 63 67 69 79 83 85 78 81 82 80 81 87
70 96 96 92 96 92 65 62 88 97 97 74 65 52 59 63 62 56 67 59 42 38 27 22 31 33 32 42 48 44 44 53 57 63 74 84 89 89 80 81 82 82 84 98
78 65 80 86 88 78 67 50 51 57 62 53 41 29 27 33 38 49 57 66 52 47 38 36 38 41 48 45 38 35 39 45 46 54 61 79 95 94 84 84 82 95 96 99
58 58 71 62 48 54 59 54 53 53 52 41 39 40 36 39 42 39 46 66 60 56 57 51 50 48 40 35 36 40 41 38 34 39 52 76 94 94 93 81 87 99 100 100
68 63 58 60 51 47 39 37 36 37 32 43 44 40 42 44 54 43 39 60 66 61 66 70 53 39 34 34 36 32 26 30 40 54 64 77 87 88 86 91 96 97 100 99
47 50 70 67 42 47 44 37 40 44 43 39 46 46 43 48 54 57 64 53 73 80 73 62 44 36 33 28 18 24 32 38 42 55 64 77 97 90 89 91 98 99 99 98

GFSCGP_850_rhum_177.txt.gz
RH
59 45 48 34 32 21 29 40 40 38 31 37 35 36 30 28 28 26 28 28 22 20 20 49 56 61 74 80 85 80 94 76 68 91 94 96 93 98 100 100 100 100 100 90
58 62 37 33 32 36 35 37 38 36 36 40 36 36 30 28 28 27 27 30 34 32 23 30 58 69 71 72 72 79 98 90 87 79 84 81 87 99 100 100 100 100 96 88
49 40 43 42 39 41 40 42 40 43 38 35 38 36 32 30 31 31 46 47 47 46 33 29 28 58 87 84 91 99 100 71 66 77 81 90 99 100 100 99 100 96 82 81
57 47 48 51 50 43 52 42 43 48 47 50 36 52 36 31 30 33 51 61 55 51 45 35 29 31 58 95 99 98 99 100 99 87 87 83 69 88 88 99 97 92 83 74
54 50 55 55 46 45 46 41 44 42 45 50 46 54 35 38 37 32 43 66 83 73 79 65 42 42 53 99 100 100 100 100 100 100 100 100 100 99 91 92 95 85 93 94
58 50 46 45 42 38 38 41 50 50 51 68 50 51 40 34 36 39 60 75 94 99 100 100 96 97 97 99 98 99 100 100 100 100 99 100 100 100 100 100 100 100 96 90
66 61 50 42 45 46 41 50 72 77 79 73 47 54 43 39 48 53 61 80 96 98 99 94 93 91 88 89 98 100 100 100 100 100 100 100 100 98 98 99 95 88 83 74
75 58 58 48 47 49 50 49 64 77 73 61 54 61 42 59 65 72 76 89 99 100 100 99 94 89 87 93 98 98 98 98 95 89 80 79 74 75 81 81 88 85 87 89
75 74 53 50 45 42 60 63 44 60 67 75 52 44 50 63 68 72 78 89 99 100 100 100 99 96 90 81 80 72 58 51 52 53 60 60 67 69 68 76 88 88 97 91
57 66 50 45 48 46 46 43 71 82 94 87 51 59 49 71 70 72 77 83 92 98 94 94 95 89 79 68 65 63 52 50 56 62 67 64 59 59 78 75 88 94 95 89
54 58 53 37 56 57 61 64 67 69 84 72 60 47 54 55 62 71 71 81 85 89 79 77 83 76 68 59 59 59 63 65 68 68 71 79 84 92 99 96 99 99 99 96
61 68 74 59 40 41 51 54 61 81 84 96 71 57 55 58 60 68 72 77 78 70 70 70 74 74 69 64 66 67 72 72 74 78 82 85 86 92 98 99 100 98 97 97
58 80 83 58 52 47 47 53 57 59 68 81 89 63 55 62 64 69 67 56 53 49 62 75 85 79 72 72 71 73 76 76 73 69 67 69 78 90 90 90 90 92 92 92
65 73 77 62 67 68 73 55 67 68 90 80 93 64 64 66 67 66 63 49 52 46 43 59 70 65 58 64 69 72 74 77 80 80 78 78 81 80 79 80 80 78 77 78
76 86 79 72 71 75 84 86 80 79 73 98 70 74 55 57 60 59 49 51 55 57 47 46 50 48 42 48 58 63 72 73 77 75 73 72 75 74 74 74 75 75 76 77
94 100 99 96 76 99 100 94 80 84 86 95 86 89 50 49 54 62 66 50 56 58 46 46 47 46 45 40 41 54 60 65 70 74 74 74 73 73 74 76 76 76 75 79
100 100 99 92 74 88 99 89 80 68 64 90 99 77 64 64 55 61 56 49 48 53 44 41 43 45 47 40 36 41 55 63 67 70 73 73 73 75 77 78 74 75 75 77
94 98 93 86 83 96 46 40 50 61 58 64 70 73 64 61 64 70 60 54 49 46 47 48 46 46 46 45 36 39 52 60 62 67 72 76 76 77 77 78 79 79 80 80
87 88 95 96 80 52 48 59 68 68 69 75 63 60 62 68 54 56 51 53 57 54 48 40 35 35 42 37 34 35 42 60 65 66 67 72 76 78 78 79 81 84 71 74
79 90 95 92 95 95 84 62 61 57 85 76 65 65 63 61 77 66 52 54 54 52 47 44 43 42 37 33 34 34 36 51 59 62 63 67 73 76 77 78 78 73 75 76
89 91 94 87 92 85 82 64 66 84 93 84 68 58 53 45 50 46 40 43 48 56 48 44 42 34 32 31 30 32 36 41 53 60 68 70 73 76 80 82 78 74 76 77
62 78 89 92 93 91 84 53 76 77 97 91 71 56 48 48 34 31 35 37 40 52 49 39 42 33 30 31 32 31 33 40 55 68 72 75 76 80 84 86 78 76 77 77
64 50 53 56 54 53 64 61 60 56 58 68 72 56 52 55 38 31 27 44 40 42 58 53 48 42 40 40 33 32 34 52 62 69 73 74 74 78 86 91 89 90 89 90
52 48 60 54 41 39 46 43 41 44 61 59 62 62 55 52 38 28 28 35 41 44 54 59 62 61 56 49 44 46 56 60 60 52 53 56 59 68 91 100 100 98 85 88
55 52 54 57 46 42 38 36 36 39 39 45 48 61 45 46 37 39 34 35 44 51 57 64 64 78 68 67 72 64 54 44 38 40 40 40 43 65 99 100 100 94 83 95
43 45 60 54 33 42 41 36 39 40 40 41 44 46 44 48 46 46 45 37 48 56 54 60 72 75 80 70 56 45 40 35 26 23 27 38 52 74 91 92 91 95 100 100